LEOIR Weather Reports


Display with metric or nautical units.
time (UTC)temp
F
wind
direction
speed
MPH
gust
MPH
rain 1hr
in
rain 24hr
in
rain mn
in
humidity
%
barometer
mb
20260508063021 50 130 0.0 3.0 0.01 0.26 0.15 92 1013.6
20260508061515 50 140 0.0 3.0 0.01 0.26 0.15 93 1013.4
20260508060013 50 139 0.0 1.0 0.02 0.26 0.15 93 1013.3
20260508054518 49 136 0.0 8.0 0.01 0.25 0.14 93 1013.5
20260508053009 49 138 0.0 2.0 0.01 0.25 0.14 93 1013.3
20260508051511 49 130 0.0 4.0 0.01 0.24 0.13 93 1012.9
20260508050002 50 133 0.0 0.0 0.02 0.24 0.13 93 1012.9
20260508044600 50 142 0.0 4.0 0.02 0.24 0.13 93 1012.8
20260508043100 50 176 0.0 1.0 0.04 0.24 0.13 93 1012.8
20260508041554 50 137 0.0 0.0 0.05 0.23 0.12 93 1012.8
20260508034549 50 165 0.0 1.0 0.07 0.22 0.11 93 1012.5
20260508033046 50 140 0.0 0.0 0.06 0.20 0.09 92 1012.4
20260508031551 51 150 0.0 3.0 0.04 0.18 0.07 92 1012.2
20260508030041 51 156 0.0 2.0 0.03 0.16 0.05 92 1012.1
20260508024538 51 190 1.0 8.0 0.02 0.15 0.04 92 1012.2
20260508023037 52 141 0.0 4.0 0.02 0.14 0.03 92 1012.0
20260508021536 52 129 0.0 0.0 0.02 0.14 0.03 92 1011.9
20260508020033 52 144 0.0 4.0 0.01 0.13 0.02 92 1011.9
20260508014527 52 140 0.0 6.0 0.01 0.13 0.02 92 1011.9
20260508013026 52 135 0.0 4.0 0.00 0.12 0.01 92 1011.9
20260508011525 52 110 0.0 3.0 0.00 0.12 0.01 92 1012.0
20260508010027 53 127 0.0 9.0 0.00 0.12 0.01 92 1011.9
20260508004531 53 168 0.0 3.0 0.00 0.12 0.01 92 1011.8
20260508003017 53 139 0.0 0.0 0.00 0.12 0.01 92 1011.7
20260508001515 53 120 0.0 4.0 0.00 0.12 0.01 91 1011.6
20260508000012 53 148 0.0 5.0 0.00 0.12 0.01 91 1011.5
20260507234520 54 138 0.0 3.0 0.01 0.12 0.01 91 1011.4
20260507233013 54 174 0.0 5.0 0.01 0.12 0.01 90 1011.4
20260507231507 54 177 0.0 0.0 0.01 0.12 0.01 90 1011.3
20260507230006 54 153 0.0 0.0 0.00 0.11 0.00 90 1011.4
20260507224508 54 152 0.0 0.0 0.00 0.11 0.00 90 1011.3
20260507223003 55 152 0.0 0.0 0.00 0.11 0.00 90 1011.4
20260507221604 55 133 0.0 10.0 0.00 0.11 0.00 90 1011.4
20260507220058 55 149 0.0 0.0 0.00 0.11 0.11 90 1011.3
20260507214556 55 137 0.0 3.0 0.00 0.11 0.11 91 1011.2
20260507213053 56 145 0.0 5.0 0.01 0.11 0.11 91 1011.2
20260507211558 56 142 0.0 3.0 0.01 0.11 0.11 90 1011.1
20260507210049 56 144 0.0 0.0 0.02 0.11 0.11 90 1011.0
20260507204543 57 146 0.0 9.0 0.03 0.11 0.11 88 1010.9
20260507203041 58 139 0.0 5.0 0.04 0.10 0.10 87 1010.8
20260507201536 59 122 0.0 8.0 0.06 0.10 0.10 87 1010.7
20260507200034 59 136 0.0 0.0 0.07 0.09 0.09 87 1010.6
20260507194534 60 129 0.0 0.0 0.06 0.08 0.08 86 1010.5
20260507193030 61 126 0.0 0.0 0.04 0.06 0.06 85 1010.3
20260507191529 61 104 0.0 0.0 0.04 0.04 0.04 85 1010.2
20260507190026 61 103 0.0 0.0 0.02 0.02 0.02 85 1010.1
20260507184524 61 103 0.0 0.0 0.02 0.02 0.02 82 1009.8
20260507183022 62 103 0.0 0.0 0.02 0.02 0.02 81 1009.6
20260507181519 62 132 0.0 5.0 0.00 0.00 0.00 78 1009.4
20260507180016 64 129 0.0 3.0 0.00 0.00 0.00 76 1009.1
20260507174536 64 123 0.0 2.0 0.00 0.00 0.00 74 1009.0
20260507173016 65 130 0.0 1.0 0.00 0.00 0.00 71 1008.8
20260507171510 65 148 0.0 0.0 0.00 0.00 0.00 67 1008.7
20260507170010 65 150 0.0 5.0 0.00 0.00 0.00 67 1008.5
20260507164507 66 129 0.0 12.0 0.00 0.00 0.00 67 1008.4
20260507163006 67 162 2.0 11.0 0.00 0.00 0.00 65 1008.4
20260507161505 67 125 0.0 5.0 0.00 0.00 0.00 65 1008.2
20260507160007 67 142 1.0 9.0 0.00 0.00 0.00 64 1008.1
20260507154502 68 169 2.0 10.0 0.00 0.00 0.00 65 1008.1
20260507153001 68 171 2.0 11.0 0.00 0.00 0.00 64 1008.0
20260507151601 69 200 2.0 10.0 0.00 0.00 0.00 64 1007.8
20260507150059 70 112 0.0 5.0 0.00 0.00 0.00 62 1007.7
20260507144558 70 137 2.0 10.0 0.00 0.00 0.00 61 1007.8
20260507143113 70 102 0.0 8.0 0.00 0.00 0.00 62 1007.7
20260507141617 71 146 1.0 13.0 0.00 0.00 0.00 59 1007.5
20260507140111 72 128 0.0 11.0 0.00 0.00 0.00 57 1007.6
20260507134554 73 102 0.0 12.0 0.00 0.00 0.00 53 1007.3
20260507133057 75 94 0.0 5.0 0.00 0.00 0.00 47 1007.1
20260507131614 75 92 0.0 7.0 0.00 0.00 0.00 46 1007.0
20260507130048 77 91 0.0 11.0 0.00 0.00 0.00 44 1006.9
20260507124552 78 41 0.0 7.0 0.00 0.00 0.00 42 1006.7
20260507123046 79 86 0.0 5.0 0.00 0.00 0.00 40 1006.8
20260507121544 81 65 0.0 1.0 0.00 0.00 0.00 38 1006.6
20260507120044 81 101 0.0 3.0 0.00 0.00 0.00 39 1006.6
20260507114537 79 58 0.0 3.0 0.00 0.00 0.00 40 1006.7
20260507113100 78 73 0.0 2.0 0.00 0.00 0.00 42 1006.8
20260507111534 78 353 0.0 4.0 0.00 0.00 0.00 41 1006.8
20260507110036 77 325 0.0 3.0 0.00 0.00 0.00 43 1006.8
20260507104527 77 90 0.0 3.0 0.00 0.00 0.00 44 1006.8
20260507103026 76 335 0.0 2.0 0.00 0.00 0.00 43 1006.7
20260507101526 78 4 0.0 4.0 0.00 0.00 0.00 42 1006.6
20260507100032 78 15 0.0 4.0 0.00 0.00 0.00 42 1006.6
20260507094518 77 275 1.0 6.0 0.00 0.00 0.00 42 1006.4
20260507093016 77 56 0.0 3.0 0.00 0.00 0.00 43 1006.5
20260507091515 76 13 0.0 7.0 0.00 0.00 0.00 42 1006.6
20260507090008 75 48 0.0 2.0 0.00 0.00 0.00 44 1006.5
20260507084503 74 92 0.0 3.0 0.00 0.00 0.00 45 1006.5
20260507083005 75 42 0.0 2.0 0.00 0.00 0.00 45 1006.4
20260507081558 74 50 0.0 2.0 0.00 0.00 0.00 47 1006.2
20260507080055 73 57 0.0 0.0 0.00 0.00 0.00 50 1006.3
20260507074551 72 24 0.0 0.0 0.00 0.00 0.00 51 1006.3
20260507073045 71 38 0.0 0.0 0.00 0.00 0.00 55 1006.3
20260507071543 69 35 0.0 0.0 0.00 0.00 0.00 58 1006.1
20260507070039 67 333 0.0 0.0 0.00 0.00 0.00 62 1006.0
20260507064538 65 32 0.0 0.0 0.00 0.00 0.00 64 1006.1